Wind_Speed
3 5 4 1 3 4 4 2 3 2 4 5 4 3 2 3 4 4 3 3 2 2 6 7 8 12 15 16 16 12 3 5 10 9 9 9 8 8 8 9 10 10 11 11 11 16 23 27 28 27 25 24 22 19 17 15 13 10 9 10 9 9 10 10 10 9 10 10 11 12 12 12 12 12 12 11 12 13 14 14 15 15 16 17 18 18
5 6 2 4 6 4 2 3 4 3 4 4 3 1 2 3 5 4 2 3 0 2 4 1 4 12 15 15 15 11 6 8 10 8 9 9 8 7 7 10 10 9 9 8 10 15 20 25 28 27 26 26 24 22 20 17 14 11 11 10 9 9 9 10 10 10 10 10 10 12 13 14 14 12 12 12 12 13 13 14 14 15 16 17 18 18
7 2 5 4 3 3 4 4 4 4 4 3 2 1 3 2 4 5 2 3 2 2 4 3 5 13 16 15 14 11 8 9 7 6 7 7 7 8 7 9 8 8 8 7 8 12 19 24 26 27 27 28 27 24 20 17 14 13 12 11 9 8 8 9 10 10 10 10 10 12 12 13 14 12 11 12 12 13 14 14 14 15 16 17 17 18
4 2 5 2 4 5 5 3 4 4 3 2 2 1 3 3 2 3 3 3 1 2 3 5 6 11 13 11 11 9 6 6 5 6 8 7 9 11 8 6 7 9 10 9 8 9 16 21 24 28 29 28 27 25 22 19 17 15 13 11 8 7 8 9 10 10 10 10 11 11 12 13 13 12 11 12 13 14 15 16 15 15 16 17 17 18
2 3 2 5 2 3 5 3 4 3 2 2 3 3 2 3 3 5 4 5 3 1 1 4 6 7 6 6 7 4 2 5 4 4 8 7 9 9 7 7 8 10 10 10 9 8 12 20 25 28 29 28 28 27 25 22 19 16 13 10 8 7 7 8 9 10 10 10 11 12 13 14 14 14 13 13 15 16 17 17 17 17 16 16 17 17
1 2 3 4 3 4 6 3 1 4 1 4 3 6 5 5 5 5 4 5 4 2 1 4 5 5 4 4 7 4 5 7 4 4 8 8 6 6 7 9 8 9 10 10 10 8 11 20 24 25 27 28 30 29 27 23 19 16 13 10 8 6 7 8 9 10 10 11 11 12 13 14 15 16 16 15 16 17 17 18 18 17 16 16 16 17
1 2 1 3 3 5 6 2 2 5 3 2 3 5 4 4 3 3 2 1 1 3 1 3 0 5 6 5 8 4 6 9 7 6 9 9 7 5 6 8 7 8 8 8 9 8 10 17 20 23 28 31 31 30 27 23 19 17 14 11 8 7 7 8 9 10 11 11 11 11 12 12 13 15 17 16 16 16 17 17 18 17 17 16 16 17
3 2 2 3 5 5 3 1 4 6 4 2 2 4 4 4 4 3 1 1 2 3 2 2 2 3 6 7 6 4 6 9 9 9 10 8 7 7 7 8 8 9 8 6 7 7 9 15 20 25 29 31 31 30 27 24 21 18 15 11 9 7 7 8 9 10 11 11 11 11 11 12 12 14 16 17 16 16 16 17 17 18 18 17 17 17
2 2 2 3 5 2 3 3 5 6 1 4 2 4 3 4 4 3 3 1 1 3 4 3 2 1 6 7 4 4 4 8 9 10 10 8 7 7 7 8 9 9 8 6 7 8 9 14 21 24 25 27 29 28 26 24 21 18 15 12 10 8 7 8 9 11 11 11 11 11 11 13 13 14 15 16 17 16 16 17 18 18 19 19 18 18
0 2 4 5 4 2 4 2 5 6 1 2 4 4 4 3 3 4 3 2 2 2 4 4 2 0 5 6 4 2 2 6 8 8 8 8 7 7 8 9 9 8 7 6 6 9 12 15 18 20 21 23 26 27 26 23 21 18 15 13 12 9 8 9 10 11 12 11 11 11 11 13 14 14 15 17 17 17 17 17 18 19 19 19 19 19
2 2 2 2 1 3 2 1 2 3 0 2 4 3 4 3 3 3 1 2 3 3 6 5 2 1 3 6 4 4 4 6 6 6 8 8 8 8 8 8 8 7 6 5 5 8 13 15 14 15 18 20 22 24 24 23 21 19 17 15 12 10 9 10 11 12 12 12 11 11 11 12 13 14 14 16 17 17 17 17 18 19 19 19 19 19
3 2 1 1 0 3 4 2 1 1 2 3 1 1 2 3 3 3 4 3 2 4 5 4 2 1 3 6 5 5 7 6 6 6 9 10 10 9 7 7 7 6 6 6 5 6 9 10 10 13 16 18 20 23 25 24 23 21 18 16 13 11 10 11 12 13 13 12 11 11 11 12 12 13 13 14 16 16 16 17 17 18 19 19 19 19
2 2 2 2 2 2 3 0 2 2 2 3 1 3 4 4 4 3 4 2 2 4 3 1 2 1 6 10 10 11 13 11 7 8 9 10 10 9 8 7 6 5 6 6 6 7 6 6 9 13 16 18 21 24 26 26 24 22 20 18 15 12 10 12 13 14 14 13 12 11 11 11 12 12 12 13 14 14 15 16 16 17 17 18 18 19
4 4 2 2 2 1 4 1 2 2 2 2 2 3 3 2 4 3 4 3 4 5 3 1 1 3 5 7 10 13 14 11 7 8 9 9 10 10 9 8 8 8 8 7 6 7 6 6 10 13 16 19 22 25 27 27 25 23 21 19 16 12 11 12 14 15 14 13 12 12 11 11 11 11 12 12 13 13 14 15 15 16 16 16 18 18
2 5 2 2 2 1 2 1 1 1 1 1 2 3 2 3 2 3 4 2 5 5 4 2 1 3 3 5 7 9 9 8 6 6 7 7 9 8 8 9 9 10 9 7 6 7 8 9 11 13 16 19 23 25 26 27 26 24 23 20 17 13 12 13 15 15 15 14 13 12 11 11 11 11 11 11 12 12 13 14 14 14 15 15 16 18
1 5 4 2 3 1 1 1 2 4 2 1 2 2 1 3 4 1 3 4 2 4 4 2 3 5 4 9 10 5 5 6 4 4 4 6 7 5 7 9 8 8 8 6 6 7 8 10 12 13 16 19 22 24 26 27 27 26 24 21 18 14 12 14 15 15 15 14 13 13 12 11 11 11 11 11 11 11 12 13 14 14 14 14 16 17
1 5 4 3 2 2 1 3 0 1 0 0 1 1 2 3 5 3 1 1 3 1 4 2 3 5 4 8 9 7 6 6 5 5 5 7 7 5 6 8 7 8 7 6 6 7 9 10 12 14 16 19 21 24 27 28 28 27 24 21 18 15 14 15 15 15 14 14 14 13 12 11 11 10 11 11 11 11 12 13 13 13 13 14 15 16
1 5 5 1 1 1 1 1 2 1 2 2 1 3 2 2 4 4 0 4 4 1 5 1 4 6 3 4 7 8 7 7 7 7 7 8 7 6 7 8 8 9 7 8 8 8 9 10 12 14 16 19 22 24 27 28 27 26 24 21 19 16 15 15 15 14 14 14 14 13 12 11 11 10 10 10 10 11 11 12 13 13 13 13 14 15
2 3 6 0 2 3 2 1 3 3 1 2 2 1 2 2 1 1 1 1 2 3 5 4 5 4 3 5 6 6 6 8 9 7 7 8 7 6 8 8 9 9 8 8 8 8 8 9 12 14 16 18 20 23 25 25 25 25 24 22 19 17 15 14 14 14 14 14 14 13 12 11 11 10 10 10 10 10 11 12 12 12 13 13 14 15
2 0 5 3 1 3 3 0 2 2 3 3 2 3 2 2 3 1 1 2 2 2 3 5 7 5 6 7 5 7 8 9 10 8 6 8 8 7 8 8 9 9 8 8 8 8 8 10 13 14 15 17 19 21 23 23 24 25 24 22 20 18 15 15 14 14 14 15 14 13 13 12 11 10 10 10 10 9 10 11 12 12 13 13 13 14
2 2 4 5 3 3 2 2 4 4 2 2 1 1 2 1 1 1 0 2 3 2 2 2 6 9 7 5 6 8 10 9 9 8 7 7 8 9 8 9 9 9 9 9 8 8 8 10 14 14 14 15 17 19 22 23 25 25 25 24 21 19 17 17 15 14 15 15 14 14 13 12 11 11 10 10 9 9 9 10 11 12 12 13 13 13
1 2 3 4 4 3 4 3 1 4 4 4 3 3 2 2 2 0 3 2 2 2 4 3 4 12 6 4 6 8 8 8 7 6 7 8 9 11 10 9 9 9 10 10 9 8 7 9 13 13 12 14 16 19 22 24 25 25 26 25 22 20 19 17 16 15 15 15 15 14 13 12 12 11 10 10 9 8 8 9 10 11 12 12 13 13
1 2 0 5 6 4 4 2 2 2 3 4 1 1 3 3 4 4 3 3 0 1 1 4 2 11 6 5 6 7 6 7 5 4 7 9 10 11 11 10 10 9 10 10 9 8 7 10 13 12 13 15 18 20 22 25 26 27 27 25 23 22 20 18 16 15 15 15 15 15 13 13 12 11 10 10 9 8 8 9 10 11 11 12 12 12
1 1 2 5 6 3 4 2 2 1 3 3 1 1 3 2 3 5 5 3 2 3 2 2 3 10 8 1 4 5 4 6 6 4 7 10 10 11 12 11 10 10 11 10 9 7 8 10 11 10 13 16 19 21 23 25 27 27 27 26 25 23 21 18 16 15 16 16 15 15 14 13 12 11 11 10 9 8 7 8 10 10 11 12 12 12
1 0 2 4 7 7 7 6 5 4 1 1 3 1 2 3 5 3 2 2 1 5 7 4 5 10 9 4 5 7 6 8 10 6 6 8 10 12 12 11 10 11 11 11 10 9 7 8 7 9 14 17 19 22 23 25 26 27 27 27 26 25 21 18 17 16 16 16 15 15 14 14 13 12 11 10 9 8 7 8 9 9 11 11 12 12
2 2 1 1 4 5 6 7 6 4 2 2 1 2 4 4 6 3 1 2 3 4 6 6 7 11 13 14 17 15 10 11 14 10 7 7 8 10 11 11 10 11 12 13 12 10 8 7 7 9 14 17 19 21 23 25 26 26 27 27 27 25 22 19 18 17 16 16 16 16 15 14 14 12 11 10 9 8 7 7 8 9 10 11 11 11
2 1 3 5 6 7 7 8 5 2 4 7 6 6 7 5 5 4 3 3 5 2 3 9 11 12 18 21 20 18 15 15 17 14 12 11 9 11 11 11 11 10 11 12 11 10 9 8 8 9 13 17 19 21 23 24 26 26 27 27 27 26 23 20 18 17 17 17 17 17 16 15 14 12 11 10 9 8 7 7 8 8 9 10 10 10
4 2 4 5 9 10 8 11 9 3 6 11 11 11 9 6 6 7 7 7 4 4 6 13 7 6 16 19 17 18 17 16 17 16 15 14 13 14 14 12 12 12 12 12 11 11 10 9 9 9 12 17 19 20 22 23 24 26 27 27 27 26 24 21 19 18 18 18 18 18 16 15 13 12 11 10 9 8 7 6 7 8 8 9 9 9
5 3 4 3 7 10 9 13 12 6 7 9 11 15 11 7 10 13 15 11 6 4 13 14 8 8 15 18 18 19 17 14 15 15 13 12 13 14 15 14 13 14 14 14 13 12 11 10 9 8 11 15 17 19 21 22 24 25 26 27 27 27 25 22 20 19 19 19 20 18 17 15 13 12 11 10 9 8 7 7 7 8 8 8 8 8
4 3 4 3 7 11 11 12 9 5 5 7 13 15 9 9 12 14 15 10 7 12 18 16 16 17 17 18 19 19 16 12 12 12 11 11 12 14 15 14 14 14 14 13 13 13 11 10 10 9 10 13 16 19 21 23 25 26 27 27 27 27 26 23 21 20 20 20 20 19 17 15 14 13 11 11 10 8 7 7 7 7 7 7 7 8
1 3 1 3 5 11 7 5 4 4 6 9 17 16 7 7 9 9 10 7 6 12 15 12 13 15 15 16 14 14 13 9 9 11 12 11 12 13 14 14 15 14 13 13 13 13 12 11 10 9 9 13 17 19 21 24 25 25 26 27 28 28 26 24 22 22 21 21 20 18 17 16 14 13 12 11 10 9 7 7 7 7 6 6 6 6
0 2 3 5 5 8 3 6 9 9 7 8 16 16 6 5 5 5 6 6 7 8 7 5 6 9 10 9 9 12 13 12 12 11 10 11 16 17 15 14 14 14 12 13 14 13 13 13 11 10 11 16 18 19 22 24 23 25 27 28 29 28 26 24 23 23 22 22 20 19 18 16 15 14 13 12 11 9 7 7 7 6 5 4 4 5
2 1 3 4 3 7 5 8 11 11 8 6 8 6 4 5 6 6 5 7 9 7 3 4 7 7 8 9 11 14 17 18 17 12 8 12 19 20 16 13 13 13 13 14 15 15 15 13 12 13 16 18 19 20 24 25 25 27 28 28 28 28 27 25 24 24 23 22 21 20 18 17 16 15 15 13 12 9 8 7 7 6 5 4 3 3
2 3 1 1 1 7 9 9 9 7 5 5 5 5 4 7 7 7 8 9 9 7 6 6 7 9 11 11 11 13 15 19 20 15 10 11 14 16 16 13 12 13 13 14 15 15 14 13 16 19 21 22 22 21 22 24 26 27 26 26 27 27 27 26 25 24 24 22 21 20 19 18 18 17 16 14 12 10 8 8 7 6 4 3 2 2
3 3 0 1 2 5 7 8 8 5 6 9 5 2 4 6 7 7 11 13 10 9 10 10 11 13 13 11 10 11 14 18 20 17 14 13 11 10 12 13 13 15 16 16 16 16 15 15 18 21 23 24 23 20 19 23 25 24 23 25 27 28 28 27 25 25 24 22 22 21 20 20 19 18 17 15 13 11 9 8 7 6 5 4 2 1
5 4 1 1 2 3 4 4 4 8 12 13 8 3 2 1 2 1 9 13 9 5 8 8 11 12 11 12 11 10 11 16 17 14 10 10 8 6 8 13 16 17 17 16 17 17 18 20 22 24 26 24 21 19 20 23 25 24 24 25 27 28 28 26 26 25 24 23 24 23 22 22 21 20 18 16 15 12 10 9 8 7 6 4 3 2
5 4 1 1 1 1 1 3 5 8 12 10 3 1 1 1 2 2 5 12 9 2 5 5 10 12 12 13 12 10 10 12 14 10 5 5 6 7 10 14 17 18 18 19 22 23 25 27 28 28 27 23 20 21 22 23 24 24 24 25 27 27 27 27 27 26 25 24 25 25 24 23 22 22 20 18 16 14 12 10 9 8 7 6 5 3
3 2 3 2 1 2 1 4 5 5 9 8 3 3 4 3 1 2 2 8 5 4 1 6 11 14 14 15 14 12 9 10 13 11 8 9 12 13 15 17 18 18 19 22 26 28 29 30 29 28 26 21 21 23 23 23 24 25 24 25 27 27 27 28 28 27 26 25 26 26 25 24 24 23 21 19 17 15 13 11 10 9 8 7 6 4
4 2 3 2 3 1 2 3 4 4 8 8 5 5 4 2 1 3 2 6 4 3 7 9 11 14 14 14 13 10 7 9 11 11 12 16 18 17 16 17 19 23 25 25 25 26 28 30 30 28 23 19 21 23 22 23 24 24 24 26 27 27 27 29 30 29 27 26 25 26 26 25 25 24 22 20 18 16 14 12 10 9 9 8 7 5
5 4 2 2 4 2 3 3 4 5 8 9 8 7 5 1 3 3 6 8 6 9 12 10 10 13 12 11 10 7 4 5 8 12 16 19 20 19 18 17 18 22 27 29 28 28 28 29 27 25 21 20 22 21 20 23 24 24 26 26 25 27 31 33 32 30 26 24 24 26 26 26 25 25 23 21 18 16 14 12 11 10 10 9 8 6
2 2 1 2 4 3 4 4 5 5 7 7 7 6 4 1 1 4 8 7 7 12 13 10 10 11 10 9 8 5 6 8 9 13 17 18 18 19 22 24 25 25 27 29 30 30 29 27 26 24 24 24 22 18 19 22 24 25 26 24 25 31 35 34 30 28 26 24 24 25 26 26 25 25 23 21 18 16 15 13 12 11 11 10 9 7
1 1 0 1 2 2 3 3 4 7 5 4 4 4 2 3 5 6 8 7 7 9 11 11 11 10 9 9 8 7 10 12 12 13 15 15 15 16 19 24 26 27 28 30 31 30 28 27 27 26 27 26 20 18 20 22 25 26 24 24 30 36 34 29 27 27 26 25 24 25 26 26 26 25 23 21 19 18 17 14 13 12 12 11 10 8
3 1 2 3 3 1 1 0 4 7 4 3 2 3 1 4 7 7 7 8 7 7 8 9 10 9 8 10 11 11 13 14 13 13 13 14 14 14 17 19 20 22 26 28 30 31 29 26 26 27 29 27 22 19 20 23 27 26 23 28 36 35 28 26 27 27 27 26 25 26 26 26 26 25 24 22 21 19 18 15 14 13 13 13 11 9
4 3 3 4 3 0 2 3 3 7 7 3 2 4 5 6 6 4 5 7 6 6 5 5 8 9 7 8 11 12 13 14 14 13 13 14 14 13 15 17 19 22 25 26 28 30 29 26 26 29 31 29 24 21 21 25 28 26 27 34 37 29 25 27 27 27 28 28 27 27 27 27 27 26 25 24 22 20 19 17 15 15 15 14 13 10
5 7 4 5 4 4 7 8 8 12 11 3 3 5 8 9 6 4 5 6 5 5 4 4 8 11 8 7 9 10 11 13 14 13 12 13 14 13 14 17 20 22 24 26 28 29 28 27 27 28 31 32 26 21 22 27 28 28 32 37 32 25 26 27 27 28 29 30 29 29 29 28 28 27 26 25 23 23 21 19 17 17 17 16 15 13
6 5 3 3 4 4 8 10 10 12 12 5 4 7 6 6 6 4 5 5 5 6 6 5 8 10 9 8 7 8 10 12 13 14 13 12 13 14 15 17 22 24 26 27 28 30 29 28 28 27 28 32 29 22 23 27 29 33 36 34 26 24 26 27 28 29 30 30 31 31 30 30 29 28 27 26 25 24 23 21 19 19 19 18 17 15
4 3 3 4 4 4 6 8 9 11 11 7 8 9 5 4 6 5 4 6 7 7 7 8 9 10 10 9 8 10 13 13 12 13 13 12 13 14 14 15 19 24 27 27 27 29 28 26 25 25 26 29 29 25 23 26 30 35 37 31 24 23 25 27 29 30 30 31 32 32 32 32 31 30 29 28 27 25 24 22 20 20 21 21 20 17
2 1 2 6 6 5 9 13 14 15 14 8 7 8 5 3 6 6 6 7 7 7 8 9 9 8 8 10 11 11 14 15 14 14 13 12 12 13 13 15 19 24 28 30 29 28 26 24 24 24 25 28 29 27 25 25 29 33 34 31 27 24 24 27 30 31 31 32 32 33 33 33 32 32 32 30 29 28 27 25 23 23 23 22 21 20
2 2 3 4 5 7 11 12 10 13 14 7 7 6 5 5 7 7 7 8 8 9 10 10 11 9 9 11 13 12 15 16 13 12 13 13 13 13 15 19 23 26 28 31 31 28 25 25 26 26 26 29 30 28 26 27 29 31 30 29 29 27 26 29 31 31 31 32 31 32 33 33 33 34 34 33 32 30 29 27 25 24 23 22 21 19
2 4 4 2 4 8 10 7 4 6 11 10 5 5 7 7 7 6 8 8 8 10 11 12 14 15 14 14 13 11 14 17 16 15 14 13 13 16 19 23 26 27 30 32 32 30 28 27 28 29 30 31 30 28 27 29 30 30 27 27 28 29 30 31 30 30 30 30 30 31 32 32 32 33 34 33 33 31 29 26 24 22 21 20 20 19
5 7 6 4 6 11 12 9 4 4 8 12 12 10 9 8 6 6 8 9 9 10 10 9 12 15 16 17 17 13 11 14 19 19 16 15 18 22 25 25 25 26 31 34 32 30 30 30 30 31 32 33 32 30 29 31 32 30 27 25 27 31 33 33 31 29 28 29 30 31 32 32 32 32 34 34 34 32 30 27 24 22 21 19 19 20
Wind_Direction
71 68 50 111 239 266 266 197 129 127 117 113 111 103 179 226 279 257 246 287 172 194 256 227 242 266 272 275 276 282 287 260 265 266 265 261 258 254 248 250 247 245 252 258 251 234 226 221 216 216 216 216 218 222 226 230 240 250 260 267 274 279 283 291 299 304 307 314 320 320 321 325 332 333 330 333 333 332 337 338 337 338 338 339 339 338
60 71 359 258 228 237 249 155 119 89 79 79 112 85 305 225 258 263 215 292 276 192 268 270 280 273 268 270 272 278 282 268 255 247 256 255 256 256 247 252 251 252 261 259 246 232 223 218 213 212 213 213 215 218 223 228 236 243 250 258 268 277 284 295 301 304 306 312 314 313 316 319 324 328 326 329 332 331 335 338 337 338 338 337 337 336
45 52 269 257 164 110 77 102 102 92 88 67 103 111 309 261 276 290 283 321 6 207 270 353 327 284 276 273 272 267 250 251 247 229 246 253 259 260 246 250 257 264 264 251 241 228 219 213 208 210 212 213 217 221 224 227 232 236 243 251 260 275 290 298 301 302 302 304 303 303 307 312 315 320 322 323 327 330 333 337 339 340 338 337 336 336
67 256 254 177 136 103 76 62 77 80 79 88 109 115 288 299 321 285 295 328 316 215 272 321 314 282 282 283 274 263 240 255 265 247 253 248 248 256 254 252 253 258 261 253 243 224 216 211 207 210 212 213 217 221 222 223 226 231 238 245 252 273 293 299 301 300 297 297 297 297 301 305 306 310 317 322 327 332 335 337 341 342 340 339 338 338
137 230 138 105 98 99 97 49 71 91 334 294 182 165 226 263 237 238 286 326 310 256 278 328 316 279 291 311 284 290 327 285 288 283 272 249 236 253 268 264 246 245 253 252 245 223 209 211 212 213 213 214 217 219 221 223 225 230 234 239 248 269 289 298 301 297 292 291 291 292 298 303 306 310 319 329 333 336 337 337 340 342 342 341 341 340
124 210 142 111 51 69 95 55 90 154 244 298 222 197 205 214 230 266 318 359 0 336 21 22 340 288 307 307 270 301 342 298 305 313 282 271 253 243 253 260 251 245 247 246 247 233 213 216 217 217 216 216 218 220 223 225 226 228 231 233 242 263 282 296 301 294 288 285 287 293 299 307 312 315 322 331 332 331 333 334 337 339 341 343 342 341
96 64 115 148 107 66 63 26 230 157 128 305 220 192 182 161 197 269 326 44 6 283 274 70 335 273 305 288 264 304 325 296 298 289 273 276 274 248 241 254 257 255 251 245 248 240 222 220 218 219 219 218 219 223 224 224 223 223 226 230 237 256 276 290 296 291 284 281 283 289 295 302 306 307 314 324 325 325 328 330 333 336 340 343 343 342
155 115 61 81 87 69 59 254 211 142 117 258 195 137 137 145 191 207 126 158 237 285 316 36 128 252 291 274 266 322 317 296 297 287 276 272 267 260 254 253 252 255 254 252 253 244 229 224 221 223 224 222 222 224 222 220 219 220 223 227 234 251 269 282 290 286 280 278 280 285 289 293 295 297 307 317 320 322 325 327 331 335 338 342 343 343
156 181 187 115 82 88 214 216 174 143 138 267 179 119 143 161 174 146 117 167 344 354 313 321 53 224 271 274 299 349 312 292 287 276 272 267 264 267 268 261 255 255 256 255 256 254 244 234 231 232 231 228 224 222 221 219 218 219 220 224 231 246 262 275 284 280 276 276 277 283 286 289 294 298 305 312 316 320 324 327 331 335 338 340 343 343
207 234 201 134 111 207 227 223 156 152 271 257 125 80 62 74 81 91 110 145 43 359 263 277 6 348 270 278 306 346 259 260 266 265 265 265 269 272 271 268 263 262 263 255 254 259 257 249 246 243 236 230 225 221 220 219 217 217 217 221 229 243 259 269 275 274 273 273 274 280 283 286 293 300 306 310 314 319 324 327 331 335 337 338 340 342
315 299 225 121 141 189 151 79 155 163 169 109 105 68 50 35 43 68 72 97 61 306 255 258 312 39 296 283 250 223 223 217 230 271 280 277 281 273 264 264 264 268 274 270 265 264 265 264 258 247 235 227 222 219 216 214 214 214 216 222 229 240 254 262 267 268 267 268 271 276 280 285 290 298 305 308 312 319 323 326 329 332 334 336 338 340
348 351 262 291 313 117 98 75 85 72 75 98 109 76 48 344 3 28 355 42 88 272 259 257 292 121 236 267 251 244 260 236 212 255 275 278 284 278 268 267 265 268 276 280 281 275 274 272 255 237 228 222 217 213 211 211 213 214 216 222 228 238 250 258 261 262 263 264 267 272 278 282 287 293 299 302 307 315 321 324 326 329 331 333 336 338
330 257 270 333 330 107 119 251 359 5 34 78 74 54 41 345 0 6 326 343 218 246 242 235 316 234 231 255 262 265 273 264 232 233 252 264 273 275 274 279 282 283 280 279 280 277 276 267 245 231 223 217 213 210 209 210 212 214 217 221 228 238 247 253 256 256 258 260 263 267 273 278 282 286 292 296 302 311 317 320 323 325 328 330 333 336
336 300 323 37 315 98 140 198 329 313 345 60 101 82 74 57 19 324 286 304 280 267 264 256 292 274 273 270 248 247 261 266 248 233 240 251 262 270 278 287 292 288 280 275 272 273 270 258 246 234 225 218 214 212 211 211 212 214 217 221 228 238 244 248 252 253 254 257 261 264 269 274 277 281 288 293 300 309 314 317 319 322 325 327 330 334
359 299 283 131 273 10 111 201 153 137 77 68 172 132 125 148 139 271 244 252 286 291 288 295 249 215 252 280 247 234 257 273 266 252 253 258 258 268 282 285 282 278 276 272 267 267 264 259 251 240 230 223 218 215 212 212 214 215 217 221 226 234 240 245 248 250 252 256 259 262 266 270 272 278 285 292 299 306 310 313 316 320 324 328 330 334
67 267 257 276 277 76 77 239 117 99 88 224 177 107 128 174 147 185 196 191 263 314 296 262 234 214 226 278 286 299 301 297 298 288 291 284 274 278 284 278 273 271 271 271 270 272 270 264 253 240 234 228 222 218 215 214 214 215 217 220 225 233 238 242 245 248 253 255 256 260 264 266 268 274 282 289 295 301 306 310 313 318 325 330 332 334
18 282 282 326 323 86 148 238 41 51 203 175 138 178 230 161 116 113 236 357 65 359 284 246 257 288 320 296 303 350 346 324 332 331 319 300 299 306 286 278 276 273 271 273 273 273 275 271 257 244 237 230 223 219 218 217 216 217 218 219 222 229 234 238 243 247 252 253 254 259 263 265 266 271 278 285 292 300 305 308 312 318 326 332 334 336
133 282 292 357 210 276 184 204 353 356 140 109 194 218 204 95 91 101 338 349 39 304 278 284 261 292 343 304 312 353 346 317 312 317 316 308 309 306 287 280 278 276 277 281 282 277 276 271 261 250 241 235 228 223 222 220 218 218 219 220 221 226 232 237 241 246 251 253 254 258 262 264 266 269 276 283 291 300 305 308 312 319 327 332 336 337
111 290 300 305 166 311 5 60 334 334 82 122 207 189 99 126 202 67 89 323 353 303 286 296 287 267 210 239 287 311 305 299 295 299 304 296 295 295 290 289 286 285 287 287 286 285 278 272 264 253 244 238 232 227 225 222 218 217 217 219 222 227 234 237 240 245 250 252 254 258 262 264 264 268 274 281 289 298 303 308 313 319 327 333 337 338
87 26 292 278 207 320 356 137 251 308 22 22 14 15 33 142 173 179 131 169 205 270 284 314 323 286 221 208 222 257 277 289 289 291 287 273 277 284 284 289 290 288 287 283 281 281 278 275 270 260 248 241 232 226 223 219 216 215 215 217 221 226 230 233 238 244 248 251 254 257 261 263 263 266 271 278 286 294 302 308 314 319 327 333 338 340
46 122 260 291 319 318 296 221 203 184 131 63 42 343 331 61 159 217 34 129 145 173 216 309 311 282 253 189 198 247 272 275 271 277 277 272 280 285 281 283 287 286 283 279 275 275 276 277 276 268 254 242 232 224 220 216 214 214 215 217 220 224 228 231 236 243 247 250 251 255 260 261 262 263 268 275 283 292 302 310 315 320 327 333 339 342
26 162 231 297 320 284 257 260 178 168 155 144 175 204 185 141 124 130 306 308 103 147 187 159 280 281 273 150 195 238 255 262 262 263 273 283 288 290 290 282 279 280 279 278 277 274 275 277 275 267 249 232 222 218 215 214 213 213 214 217 220 224 228 232 236 241 247 248 248 253 258 259 259 260 265 273 281 290 304 312 316 322 328 334 340 342
101 104 302 277 265 257 276 325 80 145 142 125 159 184 148 135 125 143 243 266 137 150 179 114 249 274 268 151 201 239 239 255 263 255 276 292 291 290 292 287 283 280 276 278 279 276 274 273 270 260 240 225 219 217 214 213 212 213 216 216 219 224 227 232 236 240 244 245 247 251 255 257 256 257 263 271 279 289 305 313 317 326 329 333 340 342
18 65 1 288 278 308 334 11 70 77 98 112 253 139 145 170 137 155 186 194 192 199 162 103 255 270 282 162 202 244 264 279 278 254 269 290 296 295 296 297 300 296 289 286 282 277 271 268 263 247 231 223 220 218 215 214 214 214 216 216 219 224 228 231 234 236 240 242 245 248 251 253 252 253 260 267 277 289 306 314 319 328 329 332 339 342
303 261 29 328 324 339 344 354 356 345 54 176 254 239 171 134 102 123 163 121 248 219 171 162 245 262 279 301 273 278 303 303 290 264 248 271 291 300 303 305 305 301 298 295 289 285 277 266 254 237 231 226 222 219 216 215 215 215 216 217 220 223 227 230 230 233 238 240 242 244 247 249 248 250 257 264 275 288 305 315 320 326 328 331 337 343
229 203 114 13 313 308 305 315 323 316 295 256 240 240 228 170 140 167 161 122 241 232 164 178 241 266 285 297 295 297 309 306 299 296 281 268 273 284 293 300 303 301 301 300 297 294 285 272 258 243 237 231 226 221 217 215 215 216 217 219 221 224 226 227 228 231 235 237 238 240 243 244 245 247 254 262 273 286 302 314 317 322 327 330 335 342
93 203 210 187 211 239 254 266 278 345 304 284 277 254 229 191 155 132 109 177 210 175 201 237 244 271 287 289 293 302 310 307 306 311 311 307 303 296 295 297 297 297 297 298 298 295 289 280 267 252 241 237 231 225 220 217 216 216 217 219 221 223 225 225 227 230 232 235 235 236 239 241 242 245 252 261 270 283 299 309 311 316 324 328 334 342
86 288 249 199 225 243 253 267 272 289 274 269 273 264 234 184 156 164 199 218 165 102 268 260 238 246 275 282 289 297 301 304 306 310 314 316 314 307 302 301 301 302 303 303 298 294 291 283 273 261 245 240 234 227 222 219 218 217 218 220 220 220 222 223 225 227 230 231 232 234 237 237 239 242 249 259 267 279 294 300 304 311 320 326 332 340
119 250 246 194 252 255 247 263 268 258 254 252 258 263 251 193 177 200 225 221 155 190 256 267 271 263 273 284 290 290 291 296 299 303 307 308 303 298 299 303 305 306 307 306 301 296 289 279 273 264 250 241 233 227 222 218 219 218 218 220 220 219 220 222 224 226 228 228 230 233 235 234 235 238 245 254 261 273 284 290 298 305 314 323 330 339
141 244 239 186 281 275 252 259 264 245 261 270 263 260 245 212 205 215 237 232 197 236 256 271 284 283 280 279 280 284 289 293 296 298 299 294 290 292 297 301 302 302 304 302 300 298 291 282 273 264 255 243 231 224 220 217 216 216 216 217 217 217 219 220 222 224 225 226 229 231 231 230 231 234 240 247 254 265 276 283 292 299 308 319 329 341
171 273 257 113 312 294 273 287 295 241 246 273 281 279 255 228 233 232 245 243 223 250 263 275 283 282 276 272 274 281 286 293 294 294 295 292 291 295 298 300 300 299 299 299 299 299 295 288 278 266 255 246 236 225 219 218 216 214 215 215 215 216 217 218 220 223 225 227 228 227 225 227 227 229 235 242 248 259 268 275 285 292 302 314 329 342
117 294 358 53 343 295 310 356 321 288 269 269 284 289 263 203 218 221 225 211 198 232 271 290 275 268 271 284 301 298 298 305 299 295 303 305 303 302 300 299 297 294 295 301 304 302 298 294 287 273 258 250 241 228 222 219 213 211 213 214 214 215 215 216 219 222 225 226 225 223 222 224 225 225 231 237 244 253 258 268 278 282 291 307 328 340
106 72 355 35 328 278 314 341 314 311 328 305 276 262 202 205 241 250 247 222 201 197 222 246 247 263 287 312 318 310 312 314 309 311 320 306 302 303 300 296 290 287 294 304 305 302 299 296 290 279 267 258 247 235 229 221 212 212 215 214 214 213 212 215 218 221 224 223 221 220 220 222 222 222 228 234 240 247 248 256 268 272 277 293 318 335
76 91 336 57 232 277 308 330 327 341 342 275 234 186 215 263 259 254 267 255 220 198 215 246 267 285 296 302 302 302 307 306 305 312 311 291 287 293 295 293 287 290 300 304 302 299 297 294 293 287 277 267 257 247 237 226 218 218 218 214 212 210 210 214 217 219 222 220 218 218 218 220 220 220 225 230 234 239 241 246 258 261 260 268 290 316
105 104 238 151 172 272 315 355 354 335 275 268 281 275 259 247 204 217 265 269 243 219 234 262 275 277 284 291 289 292 297 298 302 306 297 281 271 271 282 291 297 304 308 309 306 304 300 298 297 294 287 278 267 252 235 225 220 217 214 210 208 208 210 213 216 217 219 217 216 216 216 217 219 219 222 226 229 232 235 240 248 248 241 242 244 276
139 138 163 171 188 279 338 13 332 293 290 300 320 339 282 230 124 306 297 293 283 218 206 245 267 274 287 295 292 295 297 296 299 301 286 272 268 260 272 293 307 309 308 307 305 301 300 299 297 294 292 287 274 252 232 223 216 210 208 207 206 207 210 212 214 215 216 216 215 215 215 216 218 218 218 221 224 227 228 233 238 236 229 225 216 217
133 138 167 261 220 185 271 275 279 300 308 310 321 337 274 301 29 30 296 299 317 91 158 258 299 308 309 308 309 314 308 303 310 319 309 274 280 289 290 298 306 305 303 303 301 299 301 300 298 297 294 288 274 255 236 222 212 205 204 203 203 207 208 209 213 214 215 216 216 215 217 217 217 217 217 217 220 223 224 227 230 228 221 216 208 198
106 155 178 211 265 104 94 293 303 315 302 288 264 271 267 239 211 116 243 289 329 73 108 314 324 324 319 318 322 326 328 326 323 324 326 317 316 319 314 309 308 305 302 303 303 304 307 306 305 303 297 286 271 257 239 221 209 203 201 201 203 206 207 209 213 215 215 218 219 218 218 218 218 218 216 216 219 221 222 223 224 222 216 213 209 196
42 30 117 137 286 358 117 260 259 249 272 282 284 287 285 237 169 78 325 284 294 354 342 339 334 324 320 319 323 333 347 340 322 313 319 323 322 321 318 314 316 317 314 310 308 307 308 310 309 305 298 282 268 258 239 220 209 201 201 205 204 206 209 212 215 216 218 221 222 220 218 217 219 219 217 217 219 220 219 220 220 216 211 211 208 200
27 3 62 164 252 222 159 236 256 236 259 284 299 306 314 218 137 43 326 292 308 340 339 340 331 319 315 315 323 335 333 312 301 302 311 317 317 316 317 317 317 319 318 318 318 315 312 312 309 302 295 282 272 263 240 220 210 205 208 209 206 209 215 218 220 220 222 224 222 220 218 217 218 219 219 218 218 218 217 217 217 210 205 206 203 200
10 338 95 174 226 217 197 238 278 270 266 280 288 292 303 309 75 352 312 301 337 338 328 327 324 314 309 314 322 319 293 282 282 292 301 309 312 313 317 318 317 317 318 319 321 322 320 317 311 303 296 289 281 267 241 221 212 213 215 210 211 219 223 223 223 221 221 221 220 219 218 218 218 219 220 220 218 216 215 214 214 208 201 202 201 198
275 305 331 166 199 218 196 210 291 293 268 242 253 259 292 342 335 317 303 313 336 325 316 321 321 315 315 316 310 296 292 293 292 293 297 302 306 308 312 316 319 321 322 324 326 328 327 321 316 310 303 298 288 264 241 224 217 221 219 214 222 229 228 224 222 220 218 218 217 218 218 218 218 218 220 219 215 214 214 212 211 207 201 200 201 200
189 220 279 222 195 281 324 352 318 297 250 203 293 310 344 331 320 309 307 319 321 307 306 311 310 311 315 311 306 301 300 300 299 299 299 300 304 307 309 314 316 318 321 325 326 328 327 322 316 312 308 305 293 267 242 225 223 227 224 224 232 234 229 223 221 218 216 214 213 215 218 218 218 217 217 217 215 214 214 211 208 206 203 201 200 201
192 189 268 257 199 201 283 235 258 275 254 212 313 302 285 299 314 305 295 306 305 294 288 285 292 298 297 294 300 302 302 301 300 301 304 305 307 308 309 313 316 317 319 321 321 324 326 321 316 313 310 308 297 274 249 231 227 229 230 235 239 235 226 223 220 214 212 211 210 213 216 216 217 215 215 216 216 213 212 212 209 205 204 202 201 203
212 189 223 255 215 212 252 248 255 279 282 247 196 251 282 302 308 273 264 280 283 280 281 283 290 293 289 281 287 291 294 298 300 302 304 304 306 308 310 313 314 315 317 318 319 323 325 320 316 313 310 309 302 284 261 245 234 233 239 243 242 234 225 221 214 210 209 208 209 211 213 213 214 214 214 215 214 212 211 211 209 205 203 203 201 202
234 187 165 233 244 265 270 252 246 269 284 284 255 260 270 282 283 268 258 261 262 272 284 283 281 288 292 288 281 283 288 292 296 300 302 302 305 309 311 313 315 317 319 319 321 323 324 321 318 314 310 309 307 295 273 258 246 243 248 250 246 236 229 220 212 210 209 207 208 209 209 209 210 210 212 213 214 215 214 212 211 208 204 203 202 202
265 190 166 229 267 299 282 259 254 267 274 280 290 288 266 233 256 265 250 250 258 269 275 275 280 289 296 295 291 292 295 297 301 304 306 309 310 311 313 313 314 316 316 316 318 321 322 320 317 313 309 308 308 303 287 271 259 256 257 256 251 242 231 220 214 211 208 207 207 207 206 207 207 206 208 210 212 214 214 214 214 211 205 203 201 199
252 192 211 238 240 239 256 268 280 285 279 256 247 266 269 264 281 285 269 264 273 278 275 274 279 287 297 303 305 303 302 305 307 306 308 311 311 311 312 311 311 313 314 314 317 320 321 317 313 311 307 305 308 307 297 282 274 269 263 257 252 244 231 221 216 213 211 209 207 206 206 206 205 205 206 207 210 212 212 211 212 212 210 208 205 200
132 185 235 248 252 259 266 270 281 296 295 265 205 219 262 293 301 295 282 282 294 302 304 303 300 298 299 302 307 310 308 306 305 305 307 308 308 309 309 309 310 311 311 313 316 318 318 314 311 309 307 305 308 309 302 292 287 281 270 259 251 241 230 223 218 215 214 210 206 206 206 205 205 206 206 207 209 213 215 216 215 216 216 215 212 207
133 223 237 260 278 272 271 259 234 285 297 287 267 273 288 298 306 297 286 296 306 306 309 312 310 307 303 298 300 306 308 306 308 310 308 305 304 306 306 308 310 311 310 312 314 315 315 313 312 310 307 307 310 311 306 301 297 289 278 264 251 238 229 223 217 214 214 211 207 206 205 204 205 206 206 207 208 210 214 218 221 223 223 219 212 206
190 215 205 199 243 260 269 266 229 231 276 287 300 311 308 308 312 290 282 295 303 300 299 301 303 306 307 304 302 296 288 293 301 305 306 303 302 303 304 305 306 307 308 309 310 311 312 313 312 310 308 308 311 312 308 305 301 295 285 269 253 240 230 222 215 213 212 210 208 207 205 203 202 203 205 207 207 207 208 210 215 221 224 221 212 204
Height
859 856 863 869 872 876 881 885 883 881 880 874 873 871 872 872 864 864 869 878 884 873 864 869 868 858 849 841 835 833 838 839 835 835 834 833 833 832 831 829 827 826 821 820 822 822 822 823 824 825 827 828 829 830 830 830 830 830 831 830 830 830 830 829 828 827 826 825 824 824 824 823 821 820 819 818 817 816 815 813 812 810 809 807 805 804
857 857 869 877 880 885 887 891 889 884 881 877 874 870 872 876 865 864 872 877 883 872 860 870 868 853 845 838 833 833 835 832 827 827 825 823 827 828 828 826 823 822 819 819 820 819 820 820 821 823 824 825 826 826 827 827 827 828 829 829 829 828 828 827 826 825 824 824 824 823 823 822 820 819 817 817 816 815 814 812 811 810 808 806 804 803
861 864 873 880 888 892 892 895 888 881 879 875 876 871 866 873 870 866 874 878 881 871 858 866 865 845 837 835 830 830 831 827 825 826 822 820 822 821 822 821 820 819 817 817 817 816 817 817 819 820 821 821 822 823 824 825 825 826 826 827 827 827 826 825 824 824 823 823 823 822 822 821 820 818 817 815 815 814 812 811 810 809 807 805 804 802
863 868 878 887 891 885 884 890 884 876 876 873 873 869 864 874 872 859 866 876 878 875 866 867 866 849 836 831 824 826 832 829 828 829 827 828 823 816 818 819 818 816 814 813 813 814 815 815 817 816 816 818 819 821 821 822 823 823 824 825 825 825 824 824 822 822 821 821 821 821 820 820 819 818 816 814 813 812 810 809 809 807 806 804 802 801
864 874 887 892 889 881 875 878 878 870 869 873 874 868 865 871 871 863 869 876 871 876 877 866 853 836 828 823 812 820 832 826 824 825 819 821 822 820 819 817 816 814 811 811 809 810 813 812 812 812 814 816 816 817 817 818 820 821 822 823 823 823 822 821 821 820 820 819 819 819 819 818 818 816 814 812 810 809 808 807 806 805 804 802 801 800
868 882 889 883 880 878 869 868 875 872 867 868 868 868 868 868 872 872 874 874 860 858 872 868 845 824 819 818 807 813 824 816 816 819 808 807 814 818 816 810 810 810 808 808 806 806 808 808 809 810 811 812 812 813 814 816 818 819 820 821 820 820 820 819 819 818 818 818 817 817 817 816 816 814 812 810 809 807 806 805 804 804 802 801 799 798
872 886 888 878 873 871 867 868 876 878 868 861 866 873 874 873 875 876 873 869 854 850 870 877 855 834 823 812 810 821 823 812 811 811 804 802 804 806 808 805 805 805 804 804 804 804 805 805 807 807 807 807 807 809 812 814 816 817 818 818 818 818 818 817 816 816 816 816 816 815 815 815 814 813 811 810 808 806 805 804 803 802 800 799 798 796
872 878 881 876 870 867 866 866 873 881 867 857 871 879 875 875 874 876 873 865 863 861 868 874 862 851 837 814 820 834 821 806 804 802 800 799 798 799 801 801 801 800 800 802 801 801 802 803 803 802 802 803 804 807 809 811 813 814 815 816 816 816 815 815 814 814 814 814 814 813 813 813 812 812 810 809 807 805 804 802 801 800 798 797 796 794
871 867 867 867 866 865 864 865 873 880 868 863 881 884 879 881 877 880 876 867 879 870 851 861 865 855 840 817 821 832 818 806 802 797 795 794 794 797 797 798 798 798 799 800 799 799 799 799 799 799 800 801 802 805 806 809 810 812 813 813 813 813 813 812 812 812 812 812 811 811 810 810 810 809 808 807 806 804 802 801 799 797 796 795 794 792
870 870 870 865 863 864 865 873 879 876 870 876 889 887 885 888 884 887 879 867 877 865 843 860 869 855 837 815 814 822 814 806 800 793 794 795 797 799 798 797 796 796 798 798 798 797 796 796 796 796 798 799 800 802 804 806 808 809 810 811 811 810 810 810 810 810 810 810 809 808 808 808 808 807 806 805 804 803 801 799 797 795 794 793 791 790
876 879 879 871 867 868 871 881 887 881 880 885 887 883 881 884 883 885 883 874 866 850 848 870 874 860 843 816 806 808 803 798 795 794 795 796 797 798 797 797 795 794 796 796 797 795 794 794 794 795 796 797 798 800 802 804 806 807 807 808 808 807 807 807 807 807 807 807 806 806 806 805 805 805 804 803 802 801 799 797 795 793 792 791 789 788
876 873 872 874 874 876 874 878 887 890 890 888 880 872 865 867 871 868 869 870 854 838 853 877 877 869 853 820 800 800 802 803 802 799 796 794 794 794 794 794 795 797 796 796 795 793 793 793 792 793 793 795 797 797 799 801 802 804 804 805 805 804 804 804 805 805 804 804 803 803 803 803 803 802 801 801 800 799 797 795 794 792 791 789 788 786
865 865 870 875 876 878 873 867 876 885 887 882 872 861 852 856 862 854 853 861 851 843 863 880 874 864 848 820 803 802 799 801 806 804 800 797 795 793 794 793 794 797 797 795 794 792 791 791 790 791 791 792 794 794 796 798 799 801 801 802 802 801 802 802 802 802 801 801 800 800 800 800 800 799 799 798 797 796 795 793 792 790 789 787 786 784
855 862 870 869 869 878 875 860 857 864 869 866 862 857 852 861 867 858 862 869 858 851 869 887 876 854 832 811 802 801 794 794 803 805 803 802 799 796 797 798 797 797 795 793 792 790 788 788 787 788 789 789 790 791 793 795 796 797 798 798 798 798 799 799 799 799 798 798 798 797 797 797 797 797 796 796 795 794 793 791 790 789 788 786 784 782
860 854 861 863 866 873 873 867 862 862 863 868 875 869 855 858 862 859 861 858 853 860 875 884 865 836 816 799 795 799 797 800 803 805 808 806 805 806 803 801 797 793 791 790 789 788 785 785 785 785 786 786 787 789 790 791 792 793 794 795 795 796 796 797 796 796 796 795 795 795 794 794 794 794 793 793 792 791 790 789 788 787 786 784 782 780
869 854 863 873 875 874 870 874 878 867 861 875 885 869 855 858 858 866 879 879 882 884 875 868 850 829 816 798 796 802 796 797 800 800 803 798 799 807 800 792 790 787 787 786 785 784 782 782 782 782 783 783 784 786 786 788 788 789 791 791 792 793 793 794 793 793 793 792 793 793 792 792 792 791 791 791 790 789 788 787 785 784 783 782 780 778
866 854 866 875 874 877 875 876 881 869 858 870 873 860 866 878 866 865 886 902 907 886 858 854 840 824 820 799 790 797 788 786 791 789 792 790 791 797 790 784 785 784 783 783 782 781 779 779 779 778 779 780 781 782 782 783 784 785 787 788 789 790 790 790 790 790 790 790 790 790 790 790 790 790 789 788 788 787 786 785 784 782 781 780 778 777
875 859 863 873 866 873 886 880 877 878 869 864 862 861 874 884 873 868 873 878 885 869 849 854 848 832 828 808 789 790 786 783 786 786 788 787 785 786 783 782 783 782 783 782 780 779 777 777 776 775 776 776 777 778 778 779 781 782 784 784 785 786 787 787 788 788 788 788 788 788 789 789 788 788 787 786 786 785 784 784 782 781 779 778 776 775
887 864 859 877 872 871 885 877 867 876 879 868 865 870 872 865 861 869 870 860 866 868 853 852 858 849 835 814 792 785 785 785 787 789 788 784 783 784 783 782 782 781 782 780 778 777 775 774 773 772 773 773 774 774 775 776 778 779 780 781 782 783 784 785 785 786 786 786 786 786 787 787 786 786 785 784 783 783 783 782 781 780 778 776 774 773
892 873 858 873 880 874 874 868 858 863 875 875 871 875 876 871 868 871 876 869 863 867 861 850 842 828 815 808 794 785 787 787 786 787 785 783 784 785 785 783 782 781 780 778 776 775 773 771 770 770 770 770 771 771 772 773 774 775 776 777 779 780 781 782 783 783 783 784 784 784 785 784 784 784 783 782 781 781 781 780 779 778 776 774 772 771
890 881 864 865 876 872 860 860 859 855 864 870 867 870 874 881 886 879 879 885 870 861 872 870 842 807 796 801 794 787 788 786 784 785 784 785 786 785 786 785 782 781 778 776 775 772 770 769 768 768 767 768 768 768 769 770 770 772 773 774 776 777 778 779 780 781 781 782 782 782 783 782 782 782 781 780 779 779 779 778 778 777 775 773 771 769
888 885 876 868 866 855 851 871 880 871 871 869 861 865 867 870 877 867 867 889 891 874 874 879 854 809 788 792 791 787 786 783 786 789 786 787 787 784 784 783 781 780 776 773 772 769 768 767 765 766 765 765 765 765 765 766 767 768 769 771 773 774 776 776 777 778 778 779 779 780 780 780 780 780 779 778 777 777 777 776 776 775 773 772 769 768
896 892 886 875 865 859 866 886 892 886 885 881 873 877 876 868 864 855 853 872 888 890 892 896 873 817 782 787 789 785 787 787 791 794 789 787 787 784 782 779 778 777 773 771 769 767 766 765 763 763 763 763 762 761 762 762 763 764 765 768 770 771 772 773 774 775 775 777 777 777 778 778 778 778 777 777 775 775 775 774 774 773 772 770 768 766
899 892 886 872 861 864 877 887 890 889 885 876 874 882 880 870 867 865 866 870 872 878 887 893 871 815 780 788 792 787 792 793 794 796 792 787 785 781 778 776 774 772 770 768 767 765 765 763 762 761 760 760 759 758 759 758 759 761 762 765 766 767 769 770 771 772 772 773 774 775 776 776 776 776 775 774 774 773 773 772 772 771 770 769 767 765
891 885 883 873 861 859 862 866 871 875 875 868 871 884 885 879 880 879 882 883 869 861 866 868 852 811 784 788 790 788 791 790 789 793 791 788 784 778 775 773 772 770 767 765 763 762 761 760 759 758 757 756 755 754 755 755 756 758 759 761 763 764 766 767 768 769 769 770 771 772 773 774 774 773 773 772 772 771 771 770 770 769 768 767 765 763
890 887 884 876 871 869 862 856 856 861 870 870 871 881 882 880 877 867 870 874 863 862 868 854 832 808 789 787 785 784 789 788 784 785 785 786 783 779 777 773 771 770 765 762 761 758 758 757 756 755 753 752 752 750 751 752 753 754 756 757 759 760 762 763 764 765 766 767 768 769 770 771 771 771 771 770 769 769 769 768 768 767 766 765 763 762
896 896 890 878 873 873 865 859 863 870 872 866 864 868 869 877 880 870 869 866 855 862 864 838 824 819 804 795 790 786 788 787 782 780 780 780 780 778 776 773 771 769 764 761 759 756 755 753 751 751 750 748 748 747 747 748 749 751 752 753 755 757 758 760 761 762 763 764 765 766 767 768 768 768 768 768 767 767 766 766 765 765 764 763 761 760
893 888 891 889 878 874 872 865 868 877 874 865 862 858 858 872 879 871 863 853 847 856 847 821 821 827 811 797 795 791 790 787 782 781 780 780 780 777 772 770 768 765 761 759 756 753 751 749 747 747 746 745 744 744 745 746 746 747 748 749 752 753 754 756 757 758 760 761 762 763 764 764 765 765 766 766 765 765 764 764 763 762 762 760 759 758
892 884 893 897 883 877 880 872 869 877 875 869 864 857 859 870 873 863 853 847 848 848 830 813 817 822 810 801 797 792 790 789 786 785 785 784 781 775 769 767 765 761 758 755 752 750 748 746 744 742 741 741 741 741 742 742 743 744 745 746 748 749 751 752 754 755 756 757 758 759 760 761 762 763 763 763 763 763 763 762 761 760 759 758 757 756
895 884 896 904 887 875 874 872 876 880 874 865 858 854 859 864 865 863 854 850 853 845 829 824 827 825 813 804 800 793 790 792 792 789 786 783 778 772 768 765 762 759 756 752 749 747 744 742 741 739 738 737 737 738 738 738 738 739 740 742 744 745 747 749 750 751 752 754 754 756 757 758 759 760 760 761 760 760 761 760 759 759 758 757 755 754
895 886 898 904 884 864 861 867 876 880 875 866 853 848 857 861 862 867 863 859 859 850 841 842 843 834 815 801 800 797 793 794 792 786 782 777 773 770 766 763 760 756 753 750 747 744 741 740 738 736 735 733 732 734 734 733 734 735 736 738 739 741 744 745 747 748 748 750 751 752 754 754 755 756 757 757 758 758 758 758 757 757 756 755 754 752
898 895 898 899 881 860 859 867 868 869 871 865 847 837 847 855 849 848 853 855 851 842 840 843 838 822 803 795 798 795 788 787 784 780 779 775 769 766 763 762 759 754 751 747 744 742 739 736 735 733 731 729 728 729 729 729 731 731 732 734 735 738 740 741 743 744 745 746 747 749 750 751 752 753 753 754 754 755 756 756 755 755 754 753 752 751
911 900 893 899 884 859 864 874 867 858 848 836 827 823 830 840 837 832 835 841 841 836 831 827 815 802 796 798 799 793 785 781 776 775 780 776 768 762 761 761 758 752 749 747 744 741 738 734 732 730 727 726 724 724 724 725 726 726 727 729 732 734 736 737 739 740 741 743 744 745 746 747 749 750 750 751 751 752 753 753 753 753 752 751 750 750
918 903 900 909 888 860 867 873 860 849 834 817 819 826 826 828 829 825 820 820 828 831 822 813 807 803 802 802 798 795 790 782 775 776 780 778 771 765 761 758 756 752 749 746 743 740 737 733 730 727 725 723 721 720 721 722 723 723 724 727 729 731 732 734 735 736 738 739 741 742 743 744 745 746 747 748 748 749 750 751 751 751 750 750 749 748
909 903 906 914 899 877 875 868 851 841 828 815 821 832 832 829 829 826 816 808 815 824 821 816 812 807 803 801 800 799 794 785 778 777 776 773 769 768 764 758 754 751 747 744 741 738 735 732 728 725 722 721 720 719 719 719 720 721 723 724 725 727 728 730 731 733 734 736 737 739 740 741 742 743 744 745 746 747 747 748 749 748 748 748 747 747
901 903 905 908 902 885 874 869 859 843 825 817 822 831 834 831 827 824 815 802 802 812 818 817 812 806 805 804 801 799 796 789 781 773 770 767 765 767 765 759 755 751 747 744 740 735 732 730 726 723 720 719 719 717 716 716 717 719 720 721 722 724 725 727 728 729 731 732 734 735 736 737 738 739 740 742 743 744 744 745 746 746 746 746 746 745
903 903 900 897 896 889 881 876 864 847 830 818 816 824 828 824 821 822 818 805 800 809 816 813 809 808 806 802 798 798 797 789 775 765 764 766 766 767 765 760 757 752 746 742 738 734 731 728 724 722 719 717 717 715 714 714 715 716 718 718 720 721 722 723 724 725 727 729 730 731 732 733 734 735 737 738 739 740 741 742 743 743 744 744 744 744
907 903 896 890 891 894 891 879 864 851 834 815 813 823 828 826 825 827 824 811 804 811 816 812 810 810 805 801 798 797 794 786 773 764 763 764 764 764 761 757 754 751 746 742 736 732 729 726 723 720 717 715 714 713 713 713 713 714 715 716 717 718 719 720 720 721 723 724 726 727 729 730 731 732 733 734 736 737 738 739 740 741 742 742 742 742
909 908 904 898 895 894 888 875 865 852 828 813 817 824 828 831 831 829 824 812 806 813 815 812 812 810 805 802 801 798 797 791 780 768 762 761 762 762 760 754 749 746 744 740 737 732 728 724 721 718 715 713 710 710 712 712 712 713 713 713 714 715 715 715 715 717 719 720 722 723 724 726 727 728 730 731 732 734 735 737 738 738 739 740 740 740
908 906 905 899 894 895 892 880 868 851 829 820 823 825 831 836 832 828 824 811 806 812 812 809 812 810 805 804 804 801 800 796 788 775 766 765 764 760 758 755 749 745 740 736 734 731 726 723 720 716 714 711 709 710 712 712 712 711 710 710 711 711 709 708 710 713 715 717 719 720 721 723 724 725 726 728 729 731 732 734 735 736 736 737 738 738
903 907 912 907 895 897 898 885 870 852 834 827 828 829 834 834 828 827 824 812 810 813 810 808 811 808 805 805 804 801 797 794 790 782 774 771 767 760 756 753 749 745 741 736 732 729 725 721 718 715 712 710 709 710 710 711 711 709 707 709 708 704 702 704 708 711 713 714 716 717 718 720 721 722 724 725 727 728 730 731 732 733 734 735 735 736
892 898 907 905 896 897 902 894 877 854 834 830 832 832 833 831 828 826 818 812 815 815 810 809 809 806 806 804 802 800 795 789 787 783 777 773 769 762 756 751 746 741 738 734 731 727 724 720 716 714 711 709 708 708 708 710 709 706 706 706 700 697 699 703 706 708 709 711 712 714 716 717 718 720 721 723 724 725 727 729 730 731 732 732 733 734
879 876 873 877 884 890 892 889 872 845 829 830 831 828 828 827 824 821 816 814 816 814 812 811 808 805 805 802 799 796 792 787 784 780 775 770 766 762 757 751 747 742 736 733 729 726 724 720 715 712 709 708 707 706 705 706 704 703 703 699 693 694 698 701 702 704 706 707 708 710 712 713 715 717 718 720 721 722 724 726 727 728 729 730 731 731
878 871 859 863 875 872 865 860 846 827 822 829 828 823 822 820 818 819 817 815 813 811 810 809 805 802 803 800 797 793 788 784 780 776 772 768 763 760 755 750 747 743 737 734 730 726 724 720 715 710 706 705 705 705 704 702 700 699 697 691 689 694 696 696 699 701 702 703 705 706 708 710 712 714 715 717 719 720 722 723 724 726 727 728 729 729
866 864 857 859 864 858 847 840 830 819 818 825 824 820 817 815 816 817 816 814 812 809 808 806 802 799 798 797 795 791 786 781 776 772 770 766 760 757 753 749 746 742 737 733 729 726 723 719 714 710 704 701 702 703 702 701 698 695 690 686 689 693 692 693 695 696 697 699 700 702 704 706 708 709 711 714 716 717 719 720 721 723 724 725 726 727
859 863 862 858 854 849 840 830 826 822 818 820 820 817 815 815 815 815 814 813 811 807 805 804 801 796 794 794 792 789 784 780 775 770 767 764 759 755 751 747 743 739 736 732 727 724 722 718 713 709 704 699 699 700 699 698 697 692 686 686 690 690 690 691 692 692 694 695 696 698 700 701 703 706 708 711 712 714 716 717 718 720 721 722 724 724
859 863 862 854 850 850 839 824 820 819 816 817 817 811 812 814 813 812 813 811 808 806 805 803 800 796 794 792 790 787 782 778 775 770 765 762 758 753 749 746 741 737 734 730 727 723 720 716 712 708 703 698 696 696 695 693 692 689 687 688 689 688 688 689 689 689 690 691 692 694 695 696 699 701 704 707 709 711 713 715 716 717 718 719 720 722
857 860 856 847 846 847 834 819 815 813 810 813 813 807 808 811 810 809 810 807 805 804 802 800 799 796 793 790 788 786 781 776 774 770 765 761 758 753 749 745 740 736 731 727 724 722 719 715 711 706 702 697 694 693 692 689 686 685 685 686 687 686 686 685 685 685 686 687 688 689 690 692 694 697 700 703 705 707 709 711 713 714 714 715 717 718
856 857 850 842 841 839 828 819 818 813 804 803 805 806 807 808 807 808 808 806 804 802 799 797 796 794 793 789 785 783 778 773 770 768 765 760 756 752 748 743 739 735 730 725 722 719 717 713 709 704 699 694 691 689 687 684 682 680 680 682 682 682 682 681 681 682 682 682 684 685 686 689 690 692 695 698 701 703 705 707 709 710 711 713 714 716
856 852 846 845 844 835 822 815 815 813 805 799 801 806 808 807 808 808 806 804 803 800 798 796 792 789 789 787 784 783 778 770 766 764 762 758 754 751 747 742 738 733 728 723 720 716 713 711 707 702 696 691 688 686 683 680 678 676 676 676 676 676 675 675 676 677 677 678 680 681 682 684 686 688 691 693 696 700 702 705 707 708 709 711 712 714
847 841 838 840 836 824 813 810 814 815 810 804 803 807 808 807 808 808 805 803 801 799 798 797 793 788 785 781 781 782 778 772 766 762 759 755 751 747 744 741 737 732 726 722 717 713 710 708 705 700 695 688 685 683 680 676 674 672 672 671 670 669 669 669 670 671 672 673 674 675 677 679 681 684 686 689 692 695 698 702 704 706 707 709 710 711